STARLINK-36055

Last updated on Mon Dec 15 2025 00:02:12 GMT+0000 (Coordinated Universal Time)

1 66846U 25280AB 25348.25003472 -.01456698 00000+0 -11516-1 0 9997 2 66846 69.9935 194.4885 0003336 269.3661 75.7485 15.74057581 3147
UTC large
Height (km)
Speed (km/s)
/
Latitude / Longitude
Inclination (degrees)
Orbital Period (minutes)
Azimuth
Elevation
Range (km)
Doppler Factor

Next 0 passes for location: London (51.5072 / 0.1276)

Sorry there are no passes over London.